Location: Los Angeles
(34.0542°N, 118.2411°W)
Time: 06:12:44
(UTC-07:00)

Daily predictions for brighter satellites

Satellite Brightness Start Highest point End
(mag) Time Altitude Azimuth Time Altitude Azimuth Time Altitude Azimuth
Cosmos 2026 Rocket 4.2 20:25:38 10° S 20:31:43 82° W 20:37:55 10° N
Cosmos 968 Rocket 3.8 20:32:01 10° SSW 20:37:09 73° WNW 20:42:23 10° NNE
Cosmos 2221 4.1 20:38:31 10° NNW 20:42:27 37° W 20:46:25 10° SSW
Cosmos 1743 Rocket 3.6 20:39:50 10° S 20:44:18 89° ESE 20:48:47 10° N
NOSS 3-1 (A) 4.4 20:40:40 10° SSE 20:44:57 22° ESE 20:49:26 10° ENE
Cosmos 1500 Rocket 3.5 20:45:37 10° S 20:49:55 67° E 20:54:18 10° NNE
Meteor 1-21 Rocket 4.2 20:44:50 10° S 20:50:21 77° E 20:55:53 10° NNE
Cosmos 1437 4.2 20:48:04 10° SE 20:50:39 21° E 20:53:13 10° NE
Cosmos 2228 Rocket 3.3 20:51:10 10° N 20:55:40 77° W 21:00:10 10° S
S3M 4.0 20:56:43 10° N 21:02:51 89° W 21:09:00 10° S
Envisat 3.6 20:59:41 12° SE 21:04:07 42° ENE 21:08:52 10° N
ERS-1 Rocket 3.0 20:59:57 10° SSE 21:04:56 75° ENE 21:09:59 10° N
Delta 2 Rocket 3.1 21:01:27 10° W 21:05:12 73° N 21:08:38 10° ENE
Cosmos 1441 Rocket 3.8 21:01:32 10° SSW 21:05:15 58° W 21:08:58 10° N
ATLAS 2AS CENTAUR R/B 4.3 21:05:37 13° ESE 21:07:29 14° ESE 21:11:02 10° ENE
Cosmos 2219 3.4 21:02:35 10° S 21:08:07 51° ESE 21:13:39 10° NNE
deb Chang Zheng 4 3.5 21:06:20 10° NNE 21:10:41 83° ESE 21:15:01 10° SSW
Cosmos 2151 3.0 21:11:48 10° S 21:15:54 55° E 21:20:01 10° NNE
USA 186 4.0 21:16:58 10° SW 21:18:22 14° W 21:19:47 10° WNW
Cosmos 2322 3.9 21:15:22 10° NNW 21:21:01 58° ENE 21:25:00 19° SE
Cosmos 2322 Rocket 3.2 21:16:04 10° NW 21:21:22 44° WSW 21:26:39 10° S
Cosmos 1515 Rocket 3.9 21:17:48 10° NNW 21:22:12 64° W 21:26:31 10° S
Cosmos 2298 Rocket 4.5 21:20:10 11° SSE 21:24:56 40° E 21:29:52 10° NNE
CZ-4 SHROUD 4.0 21:24:11 26° ESE 21:25:15 35° ENE 21:28:09 10° N
Sich 1 4.2 21:25:43 22° ESE 21:27:06 25° E 21:30:44 10° NE
Aureole 3 4.4 21:21:53 10° S 21:28:48 69° E 21:34:22 10° NNE
Cosmos 2360 Rocket 2.2 21:24:42 10° NNW 21:30:21 72° ENE 21:34:08 22° SSE
Cosmos 2058 3.1 21:28:15 21° SSE 21:30:38 47° E 21:34:35 10° NNE
Cosmos 1633 Rocket 4.1 21:29:42 23° ESE 21:30:53 26° E 21:34:32 10° NNE
NOSS 3-1 (C) 3.3 21:25:23 10° SSW 21:31:05 73° ESE 21:37:21 10° NE
Cosmos 1908 3.3 21:27:38 10° N 21:31:32 76° W 21:34:30 17° S
Nimbus 7 Rocket 4.4 21:26:19 10° NNE 21:32:12 85° WNW 21:38:03 10° SSW
SL-16 R/B 3.5 21:27:46 10° NW 21:32:57 37° WSW 21:38:06 10° S
Cosmos 883 Rocket 4.4 21:27:19 10° N 21:33:32 79° E 21:38:34 16° S
DELTA 2 R/B (1) 3.6 21:29:33 10° WNW 21:35:07 77° NNE 21:38:52 21° ESE
Cosmos 1674 3.6 21:31:47 10° SSW 21:35:29 48° W 21:39:14 10° N
OAO 2 Rocket 3.4 21:32:12 10° WSW 21:37:28 64° SSE 21:42:20 12° E
Cosmos 405 3.3 21:34:09 10° NNW 21:37:45 68° W 21:39:59 21° S
Cosmos 1151 Rocket 3.1 21:34:27 10° N 21:38:46 75° W 21:41:54 18° S
OTV 4 1.9 21:39:47 10° SW 21:41:16 23° SSW 21:41:16 23° SSW
Tiangong 1 2.1 21:42:52 10° W 21:45:51 45° NNW 21:48:51 10° NE
Cosmos 1805 Rocket 3.5 21:43:28 22° S 21:46:19 74° E 21:50:45 10° N
YAOGAN 6 2.9 21:47:15 40° ESE 21:48:05 50° ENE 21:51:36 10° N
H-2A R/B 3.6 21:48:41 18° E 21:50:20 21° ENE 21:54:17 10° NNE
CZ-4 R/B 4.2 21:46:13 10° NNE 21:50:55 45° E 21:52:31 33° SSE
Cosmos 1300 3.0 21:48:31 10° N 21:52:16 49° E 21:52:56 43° ESE
CZ-4B R/B 3.5 21:48:13 10° NNE 21:53:30 73° ESE 21:56:59 21° S
Cosmos 2227 Rocket 3.0 21:53:14 29° ESE 21:53:52 29° ESE 21:58:42 10° NE
Meteor 1-11 4.2 21:50:02 18° S 21:54:25 75° E 22:00:09 10° NNE
Cosmos 1680 Rocket 3.6 21:51:48 10° NNW 21:57:02 72° WSW 21:59:53 27° S
Hubble Space Telescope 3.0 21:55:23 10° SSW 21:56:00 13° SSW 21:56:00 13° SSW
Cosmos 1939 Rocket 4.4 21:57:26 14° SSW 22:00:12 31° W 22:03:42 10° NW
SPOT 1/Viking Rocket 3.5 22:00:26 36° SE 22:02:27 66° ENE 22:07:33 10° N
H-2A R/B 3.6 21:59:24 13° SSW 22:02:54 33° W 22:06:59 10° NW
Cosmos 2315 Rocket 4.0 21:56:49 10° N 22:03:02 84° W 22:06:50 25° S
PSLV R/B 4.1 22:05:24 38° SW 22:05:55 42° W 22:08:51 10° NNW
Cosmos 1898 Rocket 3.4 22:02:06 18° SSW 22:06:00 87° ESE 22:11:14 10° NNE
Cosmos 1666 Rocket 3.5 22:07:02 35° S 22:08:53 84° W 22:13:19 10° N
Cosmos 220 Rocket 4.0 22:08:18 53° SE 22:08:55 59° ESE 22:13:16 10° NNE
Cosmos 1707 Rocket 3.4 22:04:36 10° N 22:08:59 85° E 22:10:06 50° SSE
Cosmos 858 Rocket 4.4 22:07:51 22° SSW 22:11:18 88° ESE 22:16:32 10° NNE
Cosmos 2333 Rocket 3.4 22:06:48 10° N 22:11:40 28° ENE 22:13:18 24° E
Cosmos 2150 Rocket 4.2 22:08:56 14° SSW 22:13:38 78° WNW 22:19:07 10° NNE
SPOT 5 3.6 22:11:50 24° SSW 22:14:08 44° W 22:18:40 10° NNW
Cosmos 1455 4.2 22:11:58 10° NNE 22:13:51 18° ENE 22:13:51 18° ENE
Cosmos 2297 Rocket 2.9 22:21:13 34° E 22:21:13 34° E 22:25:55 10° NE
Meteor 2-11 Rocket 4.4 22:16:05 10° N 22:22:15 84° W 22:24:52 37° S
Cosmos 1470 Rocket 3.9 22:22:50 48° ENE 22:22:50 48° ENE 22:26:40 10° NNE
COSMOS 2428 2.6 22:17:53 10° NNW 22:23:35 85° WSW 22:25:20 47° SSE
Cosmos 1933 Rocket 3.9 22:23:55 49° E 22:23:55 49° E 22:28:00 10° NNE
ARGOS 3.1 22:22:33 46° SSE 22:24:15 89° ENE 22:29:40 10° NNW
Nadezhda 1 Rocket 4.3 22:19:50 10° N 22:25:41 47° E 22:26:55 41° ESE
CZ-3A R/B 3.6 22:07:51 10° W 22:27:07 42° SSW 22:28:12 38° S
Cosmos 2219 Rocket 2.4 22:25:51 10° N 22:31:19 53° ENE 22:32:19 47° ESE
SL-08 R/B 4.4 22:29:27 35° S 22:32:16 87° W 22:38:34 10° N
Cosmos 1726 2.5 22:29:02 10° NNW 22:32:45 57° W 22:32:48 57° W
Cosmos 1745 Rocket 3.9 22:31:50 42° S 22:34:08 83° E 22:40:20 10° N
CZ-4C R/B 3.8 22:35:43 47° N 22:35:43 47° N 22:38:19 10° N
NOSS 3-1 (A) 4.3 22:29:38 10° SW 22:35:15 49° NW 22:41:26 10° NNE
ERBS 4.2 22:38:38 26° NNE 22:38:38 26° NNE 22:40:17 10° NNE
DMSP B5D2-2 3.9 22:36:54 10° NNE 22:42:06 66° ESE 22:42:19 65° ESE
Cosmos 1709 Rocket 4.5 22:42:19 39° E 22:42:29 39° E 22:48:06 10° NNE
Landsat 7 3.6 22:44:50 82° SSE 22:45:03 89° E 22:49:50 10° NNW
Cosmos 292 Rocket 3.6 22:43:00 10° NNW 22:47:46 84° WSW 22:47:50 84° SW
NOSS 0 Rocket 3.9 22:42:09 10° NNW 22:48:16 67° ENE 22:49:19 57° ESE
USA 32 4.2 22:44:02 10° N 22:49:15 66° W 22:50:14 54° SW
Cosmos 1980 3.9 22:44:58 10° NNW 22:50:31 55° ENE 22:51:01 53° E
Cosmos 1271 Rocket 3.5 22:47:18 10° NNW 22:50:33 51° WNW 22:50:33 51° WNW
Cosmos 1703 4.3 22:52:05 41° W 22:52:08 41° W 22:55:51 10° N
Spot 2 4.4 22:49:24 10° NNE 22:54:11 72° ENE 22:54:11 72° ENE
Meteor 1-4 Rocket 3.9 22:51:20 10° NNW 22:54:14 38° WNW 22:54:14 38° WNW
ATLAS 2AS CENTAUR R/B 2.8 22:52:53 28° SSW 22:57:13 88° ESE 23:05:14 10° NNE
Cosmos 1386 Rocket 4.3 22:57:19 60° SSW 22:58:31 86° W 23:04:33 10° N
Terra 1.8 23:01:11 80° N 23:01:11 80° N 23:05:41 10° NNW
Cosmos 2237 Rocket 2.2 22:57:25 10° NNW 23:03:06 65° ENE 23:03:21 64° E
Cosmos 2082 3.9 23:01:36 43° SW 23:03:23 67° WNW 23:09:06 10° NNE
Meteor 2-10 4.4 22:58:38 10° NNW 23:04:17 64° W 23:05:09 57° SW
CARTOSAT-1 4.0 23:05:23 60° NW 23:05:23 60° NW 23:09:01 10° NNW
Spot 4 3.9 23:05:42 70° NNE 23:05:42 70° NNE 23:10:08 10° N
Lacrosse 4 Rocket 3.5 23:03:14 10° N 23:06:05 19° NE 23:06:05 19° NE
Cosmos 1862 Rocket 4.1 23:03:25 10° N 23:06:52 56° NNW 23:06:52 56° NNW
Cosmos 1626 3.7 23:10:26 35° NNW 23:10:26 35° NNW 23:12:56 10° N
Cosmos 2181 Rocket 4.3 23:07:33 10° N 23:13:46 51° E 23:13:59 51° E
ATLAS 3B R/B 3.4 23:10:34 10° NNW 23:17:02 40° NE 23:18:29 36° E
OAO 2 Rocket 3.8 23:16:59 10° W 23:21:19 59° WNW 23:21:19 59° WNW
Tiangong 1 4.4 23:20:47 10° NW 23:21:29 13° NW 23:21:29 13° NW
FALCON 9 R/B 3.2 23:06:34 10° W 23:27:49 89° N 23:30:02 49° E
H-2A R/B 2.9 23:29:19 43° W 23:29:23 43° W 23:34:31 10° NNW
Cosmos 1269 Rocket 4.4 23:30:25 10° NNW 23:34:54 58° NNE 23:34:54 58° NNE
COSMOS 2455 3.1 23:30:37 10° NNW 23:36:29 56° ENE 23:36:29 56° ENE
Cosmos 2227 Rocket 3.7 23:34:58 21° WSW 23:37:46 32° WNW 23:42:48 10° N
SeaSat 1 3.4 23:49:07 40° NE 23:49:07 40° NE 23:52:58 10° N
Cosmos 1125 Rocket 4.4 23:54:00 44° WNW 23:54:00 44° WNW 23:59:01 10° N
